Weather History for Corpus Christi, TX

Change the Weather History Date:

Saturday, March 29, 2014

  Actual Average Record
Temperature  
Mean Temperature 71 °F 69 °F  
Max Temperature 82 °F 79 °F 92 °F (2000)
Min Temperature 59 °F 59 °F 40 °F (1894)
Degree Days  
Heating Degree Days 0 1  
Month to date heating degree days 132 79  
Since 1 July heating degree days 1131 879  
Cooling Degree Days 6 5  
Month to date cooling degree days 74 105  
Year to date cooling degree days 151 181  
Growing Degree Days 22 (Base 50)    
Moisture  
Dew Point 55 °F    
Average Humidity 59    
Maximum Humidity 84    
Minimum Humidity 33    
Precipitation  
Precipitation 0.00 in 0.06 in 1.57 in (1990)
Month to date precipitation 1.65 1.80  
Year to date precipitation 2.56 5.27  
Snow  
Snow 0.00 in - - ()
Month to date snowfall 0.0  
Since 1 July snowfall T  
Snow Depth 0.00 in    
Sea Level Pressure  
Sea Level Pressure 30.11 in    
Wind  
Wind Speed 14 mph (NE)    
Max Wind Speed 24 mph    
Max Gust Speed 31 mph    
Visibility 10 miles    
Events      
T = Trace of Precipitation, MM = Missing Value Source: NWS Daily Summary

Daily Weather History Graph

Daily Weather History Graph

Search for Another Location

Airport:

Trip Planner

Search our weather history database for the weather conditions in past years. The results will help you decide how hot, cold, wet, or windy it might be!

Date:

Astronomy

Mar. 29, 2014 Rise Set
Actual Time 7:23 AM CDT 7:46 PM CDT
Civil Twilight 7:00 AM CDT 8:09 PM CDT
Nautical Twilight 6:32 AM CDT 8:37 PM CDT
Astronomical Twilight 6:05 AM CDT 9:04 PM CDT
Moon 6:27 AM CDT (3/29) 6:55 PM CDT (3/29)
Length of Visible Light 13h 09m
Length of Day
12h 22m
Waning Crescent, 2% of the Moon is Illuminated
Mar 29
Waning Crescent
Mar 30
New
Apr 7
First Quarter
Apr 15
Full
Apr 22
Last Quarter

Hourly Weather History & Observations

Time (CDT) Temp. Dew Point Humidity Pressure Visibility Wind Dir Wind Speed Gust Speed Precip Events Conditions
12:51 AM 73.0 °F 62.1 °F 68% 29.91 in 10.0 mi NE 15.0 mph - N/A   Partly Cloudy
1:51 AM 72.0 °F 61.0 °F 68% 29.94 in 10.0 mi NE 13.8 mph - N/A   Partly Cloudy
2:51 AM 70.0 °F 59.0 °F 68% 29.97 in 10.0 mi NNE 17.3 mph - N/A   Partly Cloudy
3:51 AM 69.1 °F 57.0 °F 65% 29.99 in 10.0 mi NNE 16.1 mph - N/A   Partly Cloudy
4:51 AM 68.0 °F 55.0 °F 63% 30.01 in 10.0 mi NNE 21.9 mph - N/A   Scattered Clouds
5:51 AM 66.0 °F 55.9 °F 70% 30.04 in 10.0 mi NNE 20.7 mph 31.1 mph N/A   Scattered Clouds
6:51 AM 64.0 °F 55.0 °F 73% 30.08 in 10.0 mi NNE 15.0 mph - N/A   Mostly Cloudy
7:51 AM 63.0 °F 53.1 °F 70% 30.11 in 10.0 mi NNE 12.7 mph - N/A   Mostly Cloudy
8:51 AM 62.1 °F 51.1 °F 67% 30.16 in 10.0 mi NNE 17.3 mph - N/A   Mostly Cloudy
9:51 AM 66.0 °F 51.1 °F 59% 30.19 in 10.0 mi NNE 17.3 mph - N/A   Mostly Cloudy
10:51 AM 69.1 °F 52.0 °F 54% 30.20 in 10.0 mi NNE 18.4 mph - N/A   Mostly Cloudy
11:51 AM 73.0 °F 53.1 °F 49% 30.20 in 10.0 mi North 17.3 mph - N/A   Mostly Cloudy
12:51 PM 78.1 °F 54.0 °F 43% 30.19 in 10.0 mi NNE 16.1 mph 25.3 mph N/A   Overcast
1:51 PM 78.1 °F 53.1 °F 42% 30.17 in 10.0 mi NNE 16.1 mph - N/A   Overcast
2:51 PM 81.0 °F 52.0 °F 36% 30.15 in 10.0 mi NE 13.8 mph - N/A   Overcast
3:51 PM 81.0 °F 52.0 °F 36% 30.13 in 10.0 mi East 12.7 mph - N/A   Overcast
4:51 PM 82.0 °F 50.0 °F 33% 30.12 in 10.0 mi NE 13.8 mph - N/A   Mostly Cloudy
5:51 PM 77.0 °F 55.0 °F 47% 30.13 in 10.0 mi East 15.0 mph - N/A   Mostly Cloudy
6:51 PM 72.0 °F 57.0 °F 59% 30.14 in 10.0 mi East 12.7 mph - N/A   Overcast
7:51 PM 69.1 °F 57.0 °F 65% 30.14 in 10.0 mi East 10.4 mph - N/A   Overcast
8:51 PM 66.9 °F 57.9 °F 73% 30.15 in 10.0 mi East 6.9 mph - N/A   Overcast
9:51 PM 66.9 °F 59.0 °F 76% 30.17 in 10.0 mi East 6.9 mph - N/A   Mostly Cloudy
10:51 PM 61.0 °F 55.9 °F 83% 30.19 in 10.0 mi South 6.9 mph - N/A   Overcast
11:51 PM 61.0 °F 53.1 °F 75% 30.20 in 10.0 mi Calm Calm - N/A   Overcast